Time,TemperatureF,DewpointF,PressureIn,WindDirection,WindDirectionDegrees,WindSpeedMPH,WindSpeedGustMPH,Humidity,HourlyPrecipIn,Conditions,Clouds,dailyrainin,SoftwareType,DateUTC
2013-01-14 00:04:00,41.9,38.3,29.35,SW,224,0.0,0.0,87,0.00,,---,0.00,VWS V13.00,2013-01-14 09:04:00,
2013-01-14 00:09:00,41.9,38.3,29.35,SSW,206,0.0,0.0,87,0.00,,---,0.00,VWS V13.00,2013-01-14 09:09:00,
2013-01-14 00:14:00,41.9,38.3,29.35,SW,234,0.0,0.0,87,0.00,,---,0.00,VWS V13.00,2013-01-14 09:14:00,
2013-01-14 00:19:00,41.7,38.1,29.35,WSW,244,0.0,0.0,87,0.00,,---,0.00,VWS V13.00,2013-01-14 09:19:00,
2013-01-14 00:24:00,41.7,38.1,29.35,WSW,256,0.0,0.0,87,0.00,,---,0.00,VWS V13.00,2013-01-14 09:24:00,
2013-01-14 00:29:00,41.7,38.1,29.35,SW,218,0.0,0.0,87,0.00,,---,0.00,VWS V13.00,2013-01-14 09:29:00,
2013-01-14 00:34:00,41.7,37.8,29.35,WSW,250,0.0,0.0,86,0.00,,---,0.00,VWS V13.00,2013-01-14 09:34:00,
2013-01-14 00:39:00,41.7,37.8,29.35,SW,233,0.0,0.0,86,0.00,,---,0.00,VWS V13.00,2013-01-14 09:39:00,
2013-01-14 00:44:00,41.7,37.8,29.35,SSW,199,0.0,0.0,86,0.00,,---,0.00,VWS V13.00,2013-01-14 09:44:00,
2013-01-14 00:49:00,41.7,37.8,29.35,SW,219,0.0,0.0,86,0.00,,---,0.00,VWS V13.00,2013-01-14 09:49:00,
2013-01-14 00:54:00,41.7,37.8,29.35,WSW,245,0.0,0.0,86,0.00,,---,0.00,VWS V13.00,2013-01-14 09:54:00,
2013-01-14 00:59:00,41.9,38.0,29.35,SSW,205,0.0,0.0,86,0.00,,---,0.00,VWS V13.00,2013-01-14 09:59:00,
2013-01-14 01:04:00,41.9,38.0,29.32,WSW,241,0.0,0.0,86,0.00,,---,0.00,VWS V13.00,2013-01-14 10:04:00,
2013-01-14 01:09:00,41.9,37.7,29.32,WSW,241,0.0,0.0,85,0.00,,---,0.00,VWS V13.00,2013-01-14 10:09:00,
2013-01-14 01:14:00,41.7,37.5,29.32,SW,218,0.0,0.0,85,0.00,,---,0.00,VWS V13.00,2013-01-14 10:14:00,
2013-01-14 01:19:00,41.7,37.5,29.32,SSW,208,0.0,0.0,85,0.00,,---,0.00,VWS V13.00,2013-01-14 10:19:00,
2013-01-14 01:24:00,41.7,37.5,29.32,SW,223,0.0,0.0,85,0.00,,---,0.00,VWS V13.00,2013-01-14 10:24:00,
2013-01-14 01:29:00,41.7,37.5,29.32,SW,219,0.0,0.0,85,0.00,,---,0.00,VWS V13.00,2013-01-14 10:29:00,
2013-01-14 01:34:00,41.7,37.5,29.32,WSW,250,0.0,0.0,85,0.00,,---,0.00,VWS V13.00,2013-01-14 10:34:00,
2013-01-14 01:39:00,41.7,37.5,29.32,SW,225,0.0,0.0,85,0.00,,---,0.00,VWS V13.00,2013-01-14 10:39:00,
2013-01-14 01:44:00,41.7,37.5,29.32,WSW,243,0.0,0.0,85,0.00,,---,0.00,VWS V13.00,2013-01-14 10:44:00,
2013-01-14 01:49:00,41.7,37.5,29.32,SSW,211,0.0,0.0,85,0.00,,---,0.00,VWS V13.00,2013-01-14 10:49:00,
2013-01-14 01:54:00,41.7,37.5,29.32,SSW,211,0.0,0.0,85,0.00,,---,0.00,VWS V13.00,2013-01-14 10:54:00,
2013-01-14 01:59:00,41.5,37.4,29.32,SW,216,0.0,0.0,85,0.00,,---,0.00,VWS V13.00,2013-01-14 10:59:00,
2013-01-14 02:04:00,41.5,37.4,29.32,WSW,237,0.0,0.0,85,0.00,,---,0.00,VWS V13.00,2013-01-14 11:04:00,
2013-01-14 02:09:00,41.5,37.4,29.32,SW,236,0.0,0.0,85,0.00,,---,0.00,VWS V13.00,2013-01-14 11:09:00,
2013-01-14 02:14:00,41.4,37.5,29.32,WSW,244,0.0,0.0,86,0.00,,---,0.00,VWS V13.00,2013-01-14 11:14:00,
2013-01-14 02:19:00,41.4,37.5,29.32,WSW,244,0.0,0.0,86,0.00,,---,0.00,VWS V13.00,2013-01-14 11:19:00,
2013-01-14 02:24:00,41.4,37.5,29.35,West,259,0.0,0.0,86,0.00,,---,0.00,VWS V13.00,2013-01-14 11:24:00,
2013-01-14 02:29:00,41.2,37.3,29.35,SSW,194,0.0,0.0,86,0.00,,---,0.00,VWS V13.00,2013-01-14 11:29:00,
2013-01-14 02:33:00,41.2,37.3,29.35,SW,223,0.0,0.0,86,0.00,,---,0.00,VWS V13.00,2013-01-14 11:33:00,
2013-01-14 02:38:00,41.0,37.1,29.35,SSW,195,0.0,0.0,86,0.00,,---,0.00,VWS V13.00,2013-01-14 11:38:00,
2013-01-14 02:43:00,40.8,37.0,29.35,SSW,195,0.0,0.0,86,0.00,,---,0.00,VWS V13.00,2013-01-14 11:43:00,
2013-01-14 02:48:00,40.8,37.0,29.35,WSW,247,0.0,0.0,86,0.00,,---,0.00,VWS V13.00,2013-01-14 11:48:00,
2013-01-14 02:53:00,40.8,37.0,29.35,West,274,0.0,0.0,86,0.00,,---,0.00,VWS V13.00,2013-01-14 11:53:00,
2013-01-14 02:58:00,40.8,37.0,29.35,WSW,244,0.0,0.0,86,0.00,,---,0.00,VWS V13.00,2013-01-14 11:58:00,
2013-01-14 03:03:00,40.8,37.3,29.35,SSW,202,0.0,0.0,87,0.00,,---,0.00,VWS V13.00,2013-01-14 12:03:00,
2013-01-14 03:09:00,41.0,37.4,29.32,SSW,212,0.0,0.0,87,0.00,,---,0.00,VWS V13.00,2013-01-14 12:09:00,
2013-01-14 03:14:00,41.0,37.4,29.32,SSW,212,0.0,0.0,87,0.00,,---,0.00,VWS V13.00,2013-01-14 12:14:00,
2013-01-14 03:19:00,41.0,37.1,29.32,SW,235,0.0,0.0,86,0.00,,---,0.00,VWS V13.00,2013-01-14 12:19:00,
2013-01-14 03:24:00,41.0,37.1,29.35,SW,226,0.0,0.0,86,0.00,,---,0.00,VWS V13.00,2013-01-14 12:24:00,
2013-01-14 03:29:00,41.0,37.1,29.35,SW,228,0.0,0.0,86,0.00,,---,0.00,VWS V13.00,2013-01-14 12:29:00,
2013-01-14 03:34:00,41.2,37.0,29.35,South,188,0.0,0.0,85,0.00,,---,0.00,VWS V13.00,2013-01-14 12:34:00,
2013-01-14 03:39:00,41.2,37.0,29.35,South,188,0.0,0.0,85,0.00,,---,0.00,VWS V13.00,2013-01-14 12:39:00,
2013-01-14 03:44:00,41.2,36.7,29.35,West,265,0.0,0.0,84,0.00,,---,0.00,VWS V13.00,2013-01-14 12:44:00,
2013-01-14 03:49:00,41.2,36.4,29.35,WSW,245,0.0,0.0,83,0.00,,---,0.00,VWS V13.00,2013-01-14 12:49:00,
2013-01-14 03:54:00,41.4,36.0,29.35,WSW,245,0.0,0.0,81,0.00,,---,0.00,VWS V13.00,2013-01-14 12:54:00,
2013-01-14 03:58:00,41.4,36.0,29.35,SW,217,0.0,0.0,81,0.00,,---,0.00,VWS V13.00,2013-01-14 12:58:00,
2013-01-14 04:03:00,41.5,35.5,29.35,SW,217,0.0,0.0,79,0.00,,---,0.00,VWS V13.00,2013-01-14 13:03:00,
2013-01-14 04:08:00,41.5,35.5,29.35,SSW,196,0.0,0.0,79,0.00,,---,0.00,VWS V13.00,2013-01-14 13:08:00,
2013-01-14 04:13:00,41.4,35.7,29.35,SW,229,0.0,0.0,80,0.00,,---,0.00,VWS V13.00,2013-01-14 13:13:00,
2013-01-14 04:18:00,41.2,35.8,29.35,SW,229,0.0,0.0,81,0.00,,---,0.00,VWS V13.00,2013-01-14 13:18:00,
2013-01-14 04:23:00,41.0,35.9,29.35,SW,232,0.0,0.0,82,0.00,,---,0.00,VWS V13.00,2013-01-14 13:23:00,
2013-01-14 04:28:00,41.0,36.2,29.35,WSW,241,0.0,0.0,83,0.00,,---,0.00,VWS V13.00,2013-01-14 13:28:00,
2013-01-14 04:33:00,40.8,36.7,29.35,SSE,164,0.0,0.0,85,0.00,,---,0.00,VWS V13.00,2013-01-14 13:33:00,
2013-01-14 04:38:00,40.8,36.7,29.35,SSW,204,0.0,0.0,85,0.00,,---,0.00,VWS V13.00,2013-01-14 13:38:00,
2013-01-14 04:43:00,40.8,36.7,29.35,SSW,204,0.0,0.0,85,0.00,,---,0.00,VWS V13.00,2013-01-14 13:43:00,
2013-01-14 04:48:00,40.6,36.8,29.35,WSW,256,0.0,0.0,86,0.00,,---,0.00,VWS V13.00,2013-01-14 13:48:00,
2013-01-14 04:53:00,40.6,36.8,29.35,WSW,254,0.0,0.0,86,0.00,,---,0.00,VWS V13.00,2013-01-14 13:53:00,
2013-01-14 04:58:00,40.6,37.1,29.35,South,185,0.0,0.0,87,0.00,,---,0.00,VWS V13.00,2013-01-14 13:58:00,
2013-01-14 05:03:00,40.5,36.9,29.35,South,191,0.0,0.0,87,0.00,,---,0.00,VWS V13.00,2013-01-14 14:03:00,
2013-01-14 05:08:00,40.5,36.9,29.32,WSW,249,0.0,0.0,87,0.00,,---,0.00,VWS V13.00,2013-01-14 14:08:00,
2013-01-14 05:13:00,40.5,37.2,29.32,SSW,194,0.0,0.0,88,0.00,,---,0.00,VWS V13.00,2013-01-14 14:13:00,
2013-01-14 05:18:00,40.5,37.2,29.32,SSW,200,0.0,0.0,88,0.00,,---,0.00,VWS V13.00,2013-01-14 14:18:00,
2013-01-14 05:23:00,40.5,37.2,29.32,South,184,0.0,0.0,88,0.00,,---,0.00,VWS V13.00,2013-01-14 14:23:00,
2013-01-14 05:28:00,40.5,37.5,29.32,SSW,202,0.0,0.0,89,0.00,,---,0.00,VWS V13.00,2013-01-14 14:28:00,
2013-01-14 05:33:00,40.5,37.5,29.32,SW,232,0.0,0.0,89,0.00,,---,0.00,VWS V13.00,2013-01-14 14:33:00,
2013-01-14 05:38:00,40.5,37.5,29.32,SW,232,0.0,0.0,89,0.00,,---,0.00,VWS V13.00,2013-01-14 14:38:00,
2013-01-14 05:43:00,40.5,37.5,29.32,WSW,253,0.0,0.0,89,0.00,,---,0.00,VWS V13.00,2013-01-14 14:43:00,
2013-01-14 05:48:00,40.3,37.3,29.32,SW,216,0.0,0.0,89,0.00,,---,0.00,VWS V13.00,2013-01-14 14:48:00,
2013-01-14 05:53:00,40.3,37.3,29.32,SW,221,0.0,0.0,89,0.00,,---,0.00,VWS V13.00,2013-01-14 14:53:00,
2013-01-14 05:58:00,40.3,37.3,29.32,WSW,245,0.0,0.0,89,0.00,,---,0.00,VWS V13.00,2013-01-14 14:58:00,
2013-01-14 06:03:00,40.5,36.9,29.32,SSW,204,0.0,0.0,87,0.00,,---,0.00,VWS V13.00,2013-01-14 15:03:00,
2013-01-14 06:08:00,40.5,36.6,29.32,SSW,196,0.0,0.0,86,0.00,,---,0.00,VWS V13.00,2013-01-14 15:08:00,
2013-01-14 06:13:00,40.3,36.1,29.32,WSW,237,0.0,0.0,85,0.00,,---,0.00,VWS V13.00,2013-01-14 15:13:00,
2013-01-14 06:18:00,40.3,36.1,29.32,SSW,201,0.0,0.0,85,0.00,,---,0.00,VWS V13.00,2013-01-14 15:18:00,
2013-01-14 06:23:00,40.5,35.1,29.32,SW,233,0.0,0.0,81,0.00,,---,0.00,VWS V13.00,2013-01-14 15:23:00,
2013-01-14 06:28:00,41.0,33.4,29.32,SSW,194,0.0,0.0,74,0.00,,---,0.00,VWS V13.00,2013-01-14 15:28:00,
2013-01-14 06:33:00,41.2,33.2,29.32,SW,223,0.0,0.0,73,0.00,,---,0.00,VWS V13.00,2013-01-14 15:33:00,
2013-01-14 06:38:00,41.4,32.7,29.32,WSW,256,0.0,0.0,71,0.00,,---,0.00,VWS V13.00,2013-01-14 15:38:00,
2013-01-14 06:43:00,41.4,32.7,29.32,WSW,239,0.0,0.0,71,0.00,,---,0.00,VWS V13.00,2013-01-14 15:43:00,
2013-01-14 06:48:00,41.4,32.7,29.32,SW,230,0.0,0.0,71,0.00,,---,0.00,VWS V13.00,2013-01-14 15:48:00,
2013-01-14 06:53:00,41.4,32.7,29.32,WSW,241,0.0,0.0,71,0.00,,---,0.00,VWS V13.00,2013-01-14 15:53:00,
2013-01-14 06:58:00,41.4,32.7,29.32,WSW,241,0.0,0.0,71,0.00,,---,0.00,VWS V13.00,2013-01-14 15:58:00,
2013-01-14 07:03:00,41.2,32.2,29.32,SW,222,0.0,0.0,70,0.00,,---,0.00,VWS V13.00,2013-01-14 16:03:00,
2013-01-14 07:08:00,41.2,32.2,29.32,WSW,246,0.0,0.0,70,0.00,,---,0.00,VWS V13.00,2013-01-14 16:08:00,
2013-01-14 07:13:00,41.2,32.5,29.32,South,184,0.0,0.0,71,0.00,,---,0.00,VWS V13.00,2013-01-14 16:13:00,
2013-01-14 07:18:00,41.2,32.5,29.32,SW,220,0.0,0.0,71,0.00,,---,0.00,VWS V13.00,2013-01-14 16:18:00,
2013-01-14 07:23:00,41.0,31.6,29.32,SW,220,0.0,0.0,69,0.00,,---,0.00,VWS V13.00,2013-01-14 16:23:00,
2013-01-14 07:28:00,40.6,31.6,29.32,WSW,238,0.0,0.0,70,0.00,,---,0.00,VWS V13.00,2013-01-14 16:28:00,
2013-01-14 07:33:00,40.6,30.9,29.32,WSW,256,0.0,0.0,68,0.00,,---,0.00,VWS V13.00,2013-01-14 16:33:00,
2013-01-14 07:38:00,40.6,30.9,29.32,SW,222,0.0,0.0,68,0.00,,---,0.00,VWS V13.00,2013-01-14 16:38:00,
2013-01-14 07:43:00,40.5,29.3,29.32,WSW,239,0.0,0.0,64,0.00,,---,0.00,VWS V13.00,2013-01-14 16:43:00,
2013-01-14 07:48:00,40.6,29.0,29.32,West,273,0.0,0.0,63,0.00,,---,0.00,VWS V13.00,2013-01-14 16:48:00,
2013-01-14 07:53:00,40.6,29.0,29.32,West,278,0.0,0.0,63,0.00,,---,0.00,VWS V13.00,2013-01-14 16:53:00,
2013-01-14 07:58:00,40.6,28.6,29.35,NW,306,0.0,0.0,62,0.00,,---,0.00,VWS V13.00,2013-01-14 16:58:00,
2013-01-14 08:03:00,40.5,28.5,29.35,NW,312,0.0,0.0,62,0.00,,---,0.00,VWS V13.00,2013-01-14 17:03:00,
2013-01-14 08:08:00,40.5,28.5,29.35,SW,224,0.0,0.0,62,0.00,,---,0.00,VWS V13.00,2013-01-14 17:08:00,
2013-01-14 08:13:00,40.3,28.7,29.35,SW,232,0.0,0.0,63,0.00,,---,0.00,VWS V13.00,2013-01-14 17:13:00,
2013-01-14 08:18:00,40.3,28.7,29.35,SW,232,0.0,0.0,63,0.00,,---,0.00,VWS V13.00,2013-01-14 17:18:00,
2013-01-14 08:23:00,40.8,28.8,29.38,NW,310,0.0,0.0,62,0.00,,---,0.00,VWS V13.00,2013-01-14 17:23:00,
2013-01-14 08:28:00,41.0,28.6,29.38,NW,321,0.0,0.0,61,0.00,,---,0.00,VWS V13.00,2013-01-14 17:28:00,
2013-01-14 08:33:00,41.0,28.2,29.38,WNW,290,0.0,0.0,60,0.00,,---,0.00,VWS V13.00,2013-01-14 17:33:00,
2013-01-14 08:38:00,41.0,28.2,29.38,SW,219,0.0,0.0,60,0.00,,---,0.00,VWS V13.00,2013-01-14 17:38:00,
2013-01-14 08:43:00,41.0,28.2,29.38,SW,219,0.0,0.0,60,0.00,,---,0.00,VWS V13.00,2013-01-14 17:43:00,
2013-01-14 08:48:00,40.6,28.3,29.38,WNW,298,0.0,0.0,61,0.00,,---,0.00,VWS V13.00,2013-01-14 17:48:00,
2013-01-14 08:53:00,40.6,28.6,29.41,NNW,330,0.0,0.0,62,0.00,,---,0.00,VWS V13.00,2013-01-14 17:53:00,
2013-01-14 08:58:00,40.6,28.6,29.41,NNW,330,0.0,0.0,62,0.00,,---,0.00,VWS V13.00,2013-01-14 17:58:00,
2013-01-14 09:03:00,40.6,28.6,29.41,West,262,0.0,0.0,62,0.00,,---,0.00,VWS V13.00,2013-01-14 18:03:00,
2013-01-14 09:08:00,40.6,29.4,29.41,SW,219,0.0,0.0,64,0.00,,---,0.00,VWS V13.00,2013-01-14 18:08:00,
2013-01-14 09:13:00,40.6,29.4,29.41,SW,231,0.0,0.0,64,0.00,,---,0.00,VWS V13.00,2013-01-14 18:13:00,
2013-01-14 09:18:00,40.8,29.6,29.41,SSW,204,0.0,0.0,64,0.00,,---,0.00,VWS V13.00,2013-01-14 18:18:00,
2013-01-14 09:23:00,40.8,29.6,29.41,SSW,204,0.0,0.0,64,0.00,,---,0.00,VWS V13.00,2013-01-14 18:23:00,
2013-01-14 09:28:00,40.6,29.8,29.41,WSW,237,0.0,0.0,65,0.00,,---,0.00,VWS V13.00,2013-01-14 18:28:00,
2013-01-14 09:33:00,40.6,29.8,29.41,West,265,0.0,0.0,65,0.00,,---,0.00,VWS V13.00,2013-01-14 18:33:00,
2013-01-14 09:38:00,40.6,29.8,29.44,SW,226,0.0,0.0,65,0.00,,---,0.00,VWS V13.00,2013-01-14 18:38:00,
2013-01-14 09:43:00,40.3,29.8,29.44,SW,222,0.0,0.0,66,0.00,,---,0.00,VWS V13.00,2013-01-14 18:43:00,
2013-01-14 09:48:00,40.3,30.2,29.44,SW,218,0.0,0.0,67,0.00,,---,0.00,VWS V13.00,2013-01-14 18:48:00,
2013-01-14 09:53:00,40.1,30.0,29.44,WNW,299,0.0,0.0,67,0.00,,---,0.00,VWS V13.00,2013-01-14 18:53:00,
2013-01-14 09:58:00,39.9,30.2,29.44,SW,221,0.0,0.0,68,0.00,,---,0.00,VWS V13.00,2013-01-14 18:58:00,
2013-01-14 10:03:00,39.9,30.6,29.44,SW,221,0.0,0.0,69,0.00,,---,0.00,VWS V13.00,2013-01-14 19:03:00,
2013-01-14 10:08:00,39.9,30.6,29.44,SW,225,0.0,0.0,69,0.00,,---,0.00,VWS V13.00,2013-01-14 19:08:00,
2013-01-14 10:13:00,39.9,30.6,29.44,SW,227,0.0,0.0,69,0.00,,---,0.00,VWS V13.00,2013-01-14 19:13:00,
2013-01-14 10:18:00,40.5,29.6,29.44,SW,227,0.0,0.0,65,0.00,,---,0.00,VWS V13.00,2013-01-14 19:18:00,
2013-01-14 10:23:00,40.5,29.6,29.47,SW,225,0.0,0.0,65,0.00,,---,0.00,VWS V13.00,2013-01-14 19:23:00,
2013-01-14 10:28:00,41.0,29.0,29.47,SW,219,0.0,0.0,62,0.00,,---,0.00,VWS V13.00,2013-01-14 19:28:00,
2013-01-14 10:33:00,41.0,29.0,29.47,SW,231,0.0,0.0,62,0.00,,---,0.00,VWS V13.00,2013-01-14 19:33:00,
2013-01-14 10:38:00,41.0,29.0,29.47,SW,230,0.0,0.0,62,0.00,,---,0.00,VWS V13.00,2013-01-14 19:38:00,
2013-01-14 10:43:00,40.8,29.2,29.47,SW,230,0.0,0.0,63,0.00,,---,0.00,VWS V13.00,2013-01-14 19:43:00,
2013-01-14 10:48:00,40.8,29.6,29.47,SW,231,0.0,0.0,64,0.00,,---,0.00,VWS V13.00,2013-01-14 19:48:00,
2013-01-14 10:53:00,40.8,29.6,29.47,SW,234,0.0,0.0,64,0.00,,---,0.00,VWS V13.00,2013-01-14 19:53:00,
2013-01-14 10:58:00,40.8,29.6,29.47,SW,229,0.0,0.0,64,0.00,,---,0.00,VWS V13.00,2013-01-14 19:58:00,
2013-01-14 11:03:00,40.6,29.4,29.47,SW,227,0.0,0.0,64,0.00,,---,0.00,VWS V13.00,2013-01-14 20:03:00,
2013-01-14 11:08:00,40.6,29.8,29.50,SW,236,0.0,0.0,65,0.00,,---,0.00,VWS V13.00,2013-01-14 20:08:00,
2013-01-14 11:13:00,40.5,29.6,29.50,SW,227,0.0,0.0,65,0.00,,---,0.00,VWS V13.00,2013-01-14 20:13:00,
2013-01-14 11:18:00,40.6,29.8,29.50,SW,229,0.0,0.0,65,0.00,,---,0.00,VWS V13.00,2013-01-14 20:18:00,
2013-01-14 11:23:00,40.6,29.8,29.50,WSW,244,0.0,0.0,65,0.00,,---,0.00,VWS V13.00,2013-01-14 20:23:00,
2013-01-14 11:28:00,40.8,30.0,29.50,SW,230,0.0,0.0,65,0.00,,---,0.00,VWS V13.00,2013-01-14 20:28:00,
2013-01-14 11:33:00,40.8,30.0,29.50,SW,228,0.0,0.0,65,0.00,,---,0.00,VWS V13.00,2013-01-14 20:33:00,
2013-01-14 11:38:00,41.0,30.1,29.50,SW,228,0.0,0.0,65,0.00,,---,0.00,VWS V13.00,2013-01-14 20:38:00,
2013-01-14 11:43:00,40.8,30.0,29.50,WSW,242,0.0,0.0,65,0.00,,---,0.00,VWS V13.00,2013-01-14 20:43:00,
2013-01-14 11:48:00,41.0,30.1,29.50,SW,232,0.0,0.0,65,0.00,,---,0.00,VWS V13.00,2013-01-14 20:48:00,
2013-01-14 11:53:00,41.0,29.8,29.50,WSW,245,0.0,0.0,64,0.00,,---,0.00,VWS V13.00,2013-01-14 20:53:00,
2013-01-14 11:58:00,41.0,29.8,29.53,SW,233,0.0,0.0,64,0.00,,---,0.00,VWS V13.00,2013-01-14 20:58:00,
2013-01-14 12:03:00,40.6,29.8,29.53,WSW,249,0.0,0.0,65,0.00,,---,0.00,VWS V13.00,2013-01-14 21:03:00,
2013-01-14 12:08:00,40.6,29.8,29.53,West,272,0.0,0.0,65,0.00,,---,0.00,VWS V13.00,2013-01-14 21:08:00,
2013-01-14 12:13:00,40.6,29.8,29.53,SW,228,0.0,0.0,65,0.00,,---,0.00,VWS V13.00,2013-01-14 21:13:00,
2013-01-14 12:18:00,40.5,30.0,29.53,SSW,211,0.0,0.0,66,0.00,,---,0.00,VWS V13.00,2013-01-14 21:18:00,
2013-01-14 12:23:00,40.5,30.0,29.53,WSW,243,0.0,0.0,66,0.00,,---,0.00,VWS V13.00,2013-01-14 21:23:00,
2013-01-14 12:28:00,40.6,30.2,29.53,NW,305,0.0,0.0,66,0.00,,---,0.00,VWS V13.00,2013-01-14 21:28:00,
2013-01-14 12:33:00,40.6,30.2,29.53,SW,217,0.0,0.0,66,0.00,,---,0.00,VWS V13.00,2013-01-14 21:33:00,
2013-01-14 12:38:00,41.0,29.4,29.56,SW,217,0.0,0.0,63,0.00,,---,0.00,VWS V13.00,2013-01-14 21:38:00,
2013-01-14 12:43:00,41.2,29.6,29.56,SW,223,0.0,0.0,63,0.00,,---,0.00,VWS V13.00,2013-01-14 21:43:00,
2013-01-14 12:48:00,41.2,29.6,29.56,SW,234,0.0,0.0,63,0.00,,---,0.00,VWS V13.00,2013-01-14 21:48:00,
2013-01-14 12:53:00,41.2,29.6,29.56,SW,228,0.0,0.0,63,0.00,,---,0.00,VWS V13.00,2013-01-14 21:53:00,
2013-01-14 12:58:00,41.2,29.6,29.56,SW,235,0.0,0.0,63,0.00,,---,0.00,VWS V13.00,2013-01-14 21:58:00,
2013-01-14 13:03:00,41.2,29.2,29.56,SW,235,0.0,0.0,62,0.00,,---,0.00,VWS V13.00,2013-01-14 22:03:00,
2013-01-14 13:08:00,41.2,29.2,29.56,SSW,203,0.0,0.0,62,0.00,,---,0.00,VWS V13.00,2013-01-14 22:08:00,
2013-01-14 13:13:00,41.0,29.0,29.56,SSW,194,0.0,0.0,62,0.00,,---,0.00,VWS V13.00,2013-01-14 22:13:00,
2013-01-14 13:18:00,41.0,29.0,29.56,SSW,208,0.0,0.0,62,0.00,,---,0.00,VWS V13.00,2013-01-14 22:18:00,
2013-01-14 13:23:00,41.0,29.0,29.56,South,191,0.0,0.0,62,0.00,,---,0.00,VWS V13.00,2013-01-14 22:23:00,
2013-01-14 13:28:00,40.8,28.8,29.56,South,191,0.0,0.0,62,0.00,,---,0.00,VWS V13.00,2013-01-14 22:28:00,
2013-01-14 13:33:00,40.8,28.8,29.56,SSW,195,0.0,0.0,62,0.00,,---,0.00,VWS V13.00,2013-01-14 22:33:00,
2013-01-14 13:38:00,40.6,28.6,29.59,SSW,195,0.0,0.0,62,0.00,,---,0.00,VWS V13.00,2013-01-14 22:38:00,
2013-01-14 13:43:00,40.6,28.6,29.59,SSW,195,0.0,0.0,62,0.00,,---,0.00,VWS V13.00,2013-01-14 22:43:00,
2013-01-14 13:48:00,40.5,28.9,29.59,SSW,195,0.0,0.0,63,0.00,,---,0.00,VWS V13.00,2013-01-14 22:48:00,
2013-01-14 13:53:00,40.5,28.9,29.59,SSW,195,0.0,0.0,63,0.00,,---,0.00,VWS V13.00,2013-01-14 22:53:00,
2013-01-14 13:58:00,40.5,29.3,29.59,SSW,195,0.0,0.0,64,0.00,,---,0.00,VWS V13.00,2013-01-14 22:58:00,
2013-01-14 14:03:00,40.3,29.1,29.59,SSW,195,0.0,0.0,64,0.00,,---,0.00,VWS V13.00,2013-01-14 23:03:00,
2013-01-14 14:08:00,40.3,29.1,29.59,SSW,194,0.0,0.0,64,0.00,,---,0.00,VWS V13.00,2013-01-14 23:08:00,
2013-01-14 14:13:00,40.3,30.6,29.59,SSW,194,0.0,0.0,68,0.00,,---,0.00,VWS V13.00,2013-01-14 23:13:00,
2013-01-14 14:18:00,40.3,30.6,29.59,NE,51,0.0,0.0,68,0.00,,---,0.00,VWS V13.00,2013-01-14 23:18:00,
2013-01-14 14:23:00,41.0,29.4,29.62,NE,51,0.0,0.0,63,0.00,,---,0.00,VWS V13.00,2013-01-14 23:23:00,
2013-01-14 14:28:00,41.0,29.4,29.62,NE,51,0.0,0.0,63,0.00,,---,0.00,VWS V13.00,2013-01-14 23:28:00,
2013-01-14 14:33:00,41.0,29.4,29.62,NE,48,0.0,0.0,63,0.00,,---,0.00,VWS V13.00,2013-01-14 23:33:00,
2013-01-14 14:38:00,40.6,29.4,29.62,North,5,0.0,0.0,64,0.00,,---,0.00,VWS V13.00,2013-01-14 23:38:00,
2013-01-14 14:43:00,40.6,29.4,29.62,North,5,0.0,0.0,64,0.00,,---,0.00,VWS V13.00,2013-01-14 23:43:00,
2013-01-14 14:48:00,40.6,29.4,29.62,NE,42,0.0,0.0,64,0.00,,---,0.00,VWS V13.00,2013-01-14 23:48:00,
2013-01-14 14:53:00,40.6,29.4,29.62,NE,42,0.0,0.0,64,0.00,,---,0.00,VWS V13.00,2013-01-14 23:53:00,
2013-01-14 14:58:00,40.5,29.3,29.62,East,79,0.0,0.0,64,0.00,,---,0.00,VWS V13.00,2013-01-14 23:58:00,
2013-01-14 15:03:00,40.5,29.3,29.62,NNE,18,0.0,0.0,64,0.00,,---,0.00,VWS V13.00,2013-01-15 00:03:00,
2013-01-14 15:08:00,40.5,29.3,29.62,NNE,18,0.0,0.0,64,0.00,,---,0.00,VWS V13.00,2013-01-15 00:08:00,
2013-01-14 15:13:00,40.5,29.3,29.62,NNE,32,0.0,0.0,64,0.00,,---,0.00,VWS V13.00,2013-01-15 00:13:00,
2013-01-14 15:18:00,40.5,29.3,29.62,NNE,32,0.0,0.0,64,0.00,,---,0.00,VWS V13.00,2013-01-15 00:18:00,
2013-01-14 15:23:00,39.9,28.4,29.62,ENE,76,0.0,0.0,63,0.00,,---,0.00,VWS V13.00,2013-01-15 00:23:00,
2013-01-14 15:28:00,39.9,28.8,29.65,ENE,74,0.0,0.0,64,0.00,,---,0.00,VWS V13.00,2013-01-15 00:28:00,
2013-01-14 15:33:00,39.7,28.6,29.65,ENE,74,0.0,0.0,64,0.00,,---,0.00,VWS V13.00,2013-01-15 00:33:00,
2013-01-14 15:38:00,39.6,28.4,29.65,North,0,0.0,0.0,64,0.00,,---,0.00,VWS V13.00,2013-01-15 00:38:00,
2013-01-14 15:43:00,39.4,28.2,29.65,North,0,0.0,0.0,64,0.00,,---,0.00,VWS V13.00,2013-01-15 00:43:00,
2013-01-14 15:48:00,39.2,28.1,29.65,North,0,0.0,0.0,64,0.00,,---,0.00,VWS V13.00,2013-01-15 00:48:00,
2013-01-14 15:53:00,39.2,28.1,29.65,North,350,0.0,0.0,64,0.00,,---,0.00,VWS V13.00,2013-01-15 00:53:00,
2013-01-14 15:58:00,38.8,28.1,29.65,North,350,0.0,0.0,65,0.00,,---,0.00,VWS V13.00,2013-01-15 00:58:00,
2013-01-14 16:03:00,38.8,28.1,29.65,North,350,0.0,0.0,65,0.00,,---,0.00,VWS V13.00,2013-01-15 01:03:00,
2013-01-14 16:08:00,38.7,29.0,29.68,North,350,0.0,0.0,68,0.00,,---,0.00,VWS V13.00,2013-01-15 01:08:00,
2013-01-14 16:13:00,38.7,29.0,29.68,North,350,0.0,0.0,68,0.00,,---,0.00,VWS V13.00,2013-01-15 01:13:00,
2013-01-14 16:18:00,38.3,29.0,29.68,ESE,102,0.0,0.0,69,0.00,,---,0.00,VWS V13.00,2013-01-15 01:18:00,
2013-01-14 16:23:00,38.3,29.0,29.68,ESE,102,0.0,0.0,69,0.00,,---,0.00,VWS V13.00,2013-01-15 01:23:00,
2013-01-14 16:28:00,38.3,29.0,29.68,NE,41,0.0,0.0,69,0.00,,---,0.00,VWS V13.00,2013-01-15 01:28:00,
2013-01-14 16:33:00,37.9,28.3,29.68,NE,41,0.0,0.0,68,0.00,,---,0.00,VWS V13.00,2013-01-15 01:33:00,
2013-01-14 16:38:00,37.9,28.3,29.68,NE,41,0.0,0.0,68,0.00,,---,0.00,VWS V13.00,2013-01-15 01:38:00,
2013-01-14 16:43:00,37.6,26.9,29.68,ENE,73,0.0,0.0,65,0.00,,---,0.00,VWS V13.00,2013-01-15 01:43:00,
2013-01-14 16:48:00,37.6,26.9,29.68,ENE,62,0.0,0.0,65,0.00,,---,0.00,VWS V13.00,2013-01-15 01:48:00,
2013-01-14 16:53:00,37.4,26.7,29.71,ENE,62,0.0,0.0,65,0.00,,---,0.00,VWS V13.00,2013-01-15 01:53:00,
2013-01-14 16:58:00,37.4,26.0,29.71,NE,48,0.0,0.0,63,0.00,,---,0.00,VWS V13.00,2013-01-15 01:58:00,
2013-01-14 17:03:00,37.4,26.0,29.71,NE,48,0.0,0.0,63,0.00,,---,0.00,VWS V13.00,2013-01-15 02:03:00,
2013-01-14 17:08:00,37.4,25.2,29.71,NE,48,0.0,0.0,61,0.00,,---,0.00,VWS V13.00,2013-01-15 02:08:00,
2013-01-14 17:13:00,37.4,25.2,29.71,NW,323,0.0,0.0,61,0.00,,---,0.00,VWS V13.00,2013-01-15 02:13:00,
2013-01-14 17:18:00,37.2,25.8,29.71,NW,323,0.0,0.0,63,0.00,,---,0.00,VWS V13.00,2013-01-15 02:18:00,
2013-01-14 17:23:00,37.2,25.8,29.71,North,350,0.0,0.0,63,0.00,,---,0.00,VWS V13.00,2013-01-15 02:23:00,
2013-01-14 17:28:00,37.2,25.8,29.71,North,350,0.0,0.0,63,0.00,,---,0.00,VWS V13.00,2013-01-15 02:28:00,
2013-01-14 17:33:00,37.0,25.6,29.71,North,350,0.0,0.0,63,0.00,,---,0.00,VWS V13.00,2013-01-15 02:33:00,
2013-01-14 17:38:00,36.9,25.5,29.71,NW,323,0.0,0.0,63,0.00,,---,0.00,VWS V13.00,2013-01-15 02:38:00,
2013-01-14 17:43:00,36.7,25.7,29.71,NW,323,0.0,0.0,64,0.00,,---,0.00,VWS V13.00,2013-01-15 02:43:00,
2013-01-14 17:48:00,36.7,25.7,29.71,WNW,297,0.0,0.0,64,0.00,,---,0.00,VWS V13.00,2013-01-15 02:48:00,
2013-01-14 17:53:00,36.7,25.7,29.71,NNW,344,0.0,0.0,64,0.00,,---,0.00,VWS V13.00,2013-01-15 02:53:00,
2013-01-14 17:58:00,36.3,25.7,29.71,NNW,340,0.0,0.0,65,0.00,,---,0.00,VWS V13.00,2013-01-15 02:58:00,
2013-01-14 18:03:00,36.1,25.5,29.71,North,6,0.0,0.0,65,0.00,,---,0.00,VWS V13.00,2013-01-15 03:03:00,
2013-01-14 18:08:00,36.1,25.9,29.74,North,6,0.0,0.0,66,0.00,,---,0.00,VWS V13.00,2013-01-15 03:08:00,
2013-01-14 18:13:00,36.1,25.9,29.74,North,353,0.0,0.0,66,0.00,,---,0.00,VWS V13.00,2013-01-15 03:13:00,
2013-01-14 18:18:00,36.1,25.5,29.74,North,353,0.0,0.0,65,0.00,,---,0.00,VWS V13.00,2013-01-15 03:18:00,
2013-01-14 18:23:00,36.1,25.5,29.74,NNE,24,0.0,0.0,65,0.00,,---,0.00,VWS V13.00,2013-01-15 03:23:00,
2013-01-14 18:28:00,36.1,25.1,29.74,NNE,24,0.0,0.0,64,0.00,,---,0.00,VWS V13.00,2013-01-15 03:28:00,
2013-01-14 18:33:00,36.1,25.1,29.74,North,0,0.0,0.0,64,0.00,,---,0.00,VWS V13.00,2013-01-15 03:33:00,
2013-01-14 18:38:00,36.1,25.1,29.74,NNE,25,0.0,0.0,64,0.00,,---,0.00,VWS V13.00,2013-01-15 03:38:00,
2013-01-14 18:43:00,36.1,24.4,29.74,North,9,0.0,0.0,62,0.00,,---,0.00,VWS V13.00,2013-01-15 03:43:00,
2013-01-14 18:48:00,36.1,24.4,29.74,NNW,342,0.0,0.0,62,0.00,,---,0.00,VWS V13.00,2013-01-15 03:48:00,
2013-01-14 18:53:00,36.1,24.4,29.74,NNW,342,0.0,0.0,62,0.00,,---,0.00,VWS V13.00,2013-01-15 03:53:00,
2013-01-14 18:58:00,36.0,24.2,29.74,NNE,16,0.0,0.0,62,0.00,,---,0.00,VWS V13.00,2013-01-15 03:58:00,
2013-01-14 19:03:00,36.0,24.2,29.74,North,0,0.0,0.0,62,0.00,,---,0.00,VWS V13.00,2013-01-15 04:03:00,
2013-01-14 19:08:00,35.8,24.0,29.74,North,4,0.0,0.0,62,0.00,,---,0.00,VWS V13.00,2013-01-15 04:08:00,
2013-01-14 19:13:00,35.8,24.0,29.74,SE,136,0.0,0.0,62,0.00,,---,0.00,VWS V13.00,2013-01-15 04:13:00,
2013-01-14 19:18:00,35.6,23.9,29.74,NNE,16,0.0,0.0,62,0.00,,---,0.00,VWS V13.00,2013-01-15 04:18:00,
2013-01-14 19:23:00,35.6,23.9,29.74,NNE,15,0.0,0.0,62,0.00,,---,0.00,VWS V13.00,2013-01-15 04:23:00,
2013-01-14 19:28:00,35.1,24.5,29.74,NNE,33,0.0,0.0,65,0.00,,---,0.00,VWS V13.00,2013-01-15 04:28:00,
2013-01-14 19:33:00,35.1,25.2,29.74,NNE,16,0.0,0.0,67,0.00,,---,0.00,VWS V13.00,2013-01-15 04:33:00,
2013-01-14 19:38:00,35.1,25.2,29.74,ENE,72,0.0,0.0,67,0.00,,---,0.00,VWS V13.00,2013-01-15 04:38:00,
2013-01-14 19:43:00,35.1,25.2,29.74,ENE,63,0.0,0.0,67,0.00,,---,0.00,VWS V13.00,2013-01-15 04:43:00,
2013-01-14 19:48:00,35.1,25.2,29.74,NW,310,0.0,0.0,67,0.00,,---,0.00,VWS V13.00,2013-01-15 04:48:00,
2013-01-14 19:53:00,34.9,24.7,29.77,WNW,283,0.0,0.0,66,0.00,,---,0.00,VWS V13.00,2013-01-15 04:53:00,
2013-01-14 19:58:00,34.9,24.7,29.77,NNE,14,0.0,0.0,66,0.00,,---,0.00,VWS V13.00,2013-01-15 04:58:00,
2013-01-14 20:00:00,34.7,24.5,29.77,NNE,14,0.0,0.0,66,0.00,,---,0.00,VWS V13.00,2013-01-15 05:00:00,
2013-01-14 20:02:00,34.7,24.5,29.77,NNE,14,0.0,0.0,66,0.00,,---,0.00,VWS V13.00,2013-01-15 05:02:00,
2013-01-14 20:07:00,34.7,24.5,29.77,NNW,329,0.0,0.0,66,0.00,,---,0.00,VWS V13.00,2013-01-15 05:07:00,
2013-01-14 20:12:00,34.7,24.5,29.77,NNW,329,0.0,0.0,66,0.00,,---,0.00,VWS V13.00,2013-01-15 05:12:00,
2013-01-14 20:17:00,34.5,25.4,29.77,NNW,332,0.0,0.0,69,0.00,,---,0.00,VWS V13.00,2013-01-15 05:17:00,
2013-01-14 20:22:00,34.5,25.4,29.80,North,357,0.0,0.0,69,0.00,,---,0.00,VWS V13.00,2013-01-15 05:22:00,
2013-01-14 20:27:00,34.5,25.4,29.80,North,357,0.0,0.0,69,0.00,,---,0.00,VWS V13.00,2013-01-15 05:27:00,
2013-01-14 20:32:00,34.5,25.4,29.80,NNE,23,0.0,0.0,69,0.00,,---,0.00,VWS V13.00,2013-01-15 05:32:00,
2013-01-14 20:37:00,34.5,25.4,29.80,ENE,69,0.0,0.0,69,0.00,,---,0.00,VWS V13.00,2013-01-15 05:37:00,
2013-01-14 20:42:00,34.2,26.1,29.80,North,11,0.0,0.0,72,0.00,,---,0.00,VWS V13.00,2013-01-15 05:42:00,
2013-01-14 20:47:00,34.2,26.1,29.80,NNW,334,0.0,0.0,72,0.00,,---,0.00,VWS V13.00,2013-01-15 05:47:00,
2013-01-14 20:52:00,34.2,26.1,29.80,NNW,334,0.0,0.0,72,0.00,,---,0.00,VWS V13.00,2013-01-15 05:52:00,
2013-01-14 20:57:00,34.0,25.9,29.80,NNW,334,0.0,0.0,72,0.00,,---,0.00,VWS V13.00,2013-01-15 05:57:00,
2013-01-14 21:02:00,34.0,25.9,29.80,NNW,334,0.0,0.0,72,0.00,,---,0.00,VWS V13.00,2013-01-15 06:02:00,
2013-01-14 21:07:00,33.8,25.7,29.80,NNW,334,0.0,0.0,72,0.00,,---,0.00,VWS V13.00,2013-01-15 06:07:00,
2013-01-14 21:12:00,33.8,25.7,29.80,NNW,334,0.0,0.0,72,0.00,,---,0.00,VWS V13.00,2013-01-15 06:12:00,
2013-01-14 21:17:00,33.8,25.7,29.80,NNW,334,0.0,0.0,72,0.00,,---,0.00,VWS V13.00,2013-01-15 06:17:00,
2013-01-14 21:22:00,33.6,25.9,29.80,NE,48,0.0,0.0,73,0.00,,---,0.00,VWS V13.00,2013-01-15 06:22:00,
2013-01-14 21:27:00,33.4,25.7,29.80,NE,49,0.0,0.0,73,0.00,,---,0.00,VWS V13.00,2013-01-15 06:27:00,
2013-01-14 21:32:00,33.4,25.7,29.80,NE,49,0.0,0.0,73,0.00,,---,0.00,VWS V13.00,2013-01-15 06:32:00,
2013-01-14 21:37:00,33.4,26.1,29.80,NNE,13,0.0,0.0,74,0.00,,---,0.00,VWS V13.00,2013-01-15 06:37:00,
2013-01-14 21:42:00,33.4,26.1,29.80,NE,45,0.0,0.0,74,0.00,,---,0.00,VWS V13.00,2013-01-15 06:42:00,
2013-01-14 21:47:00,34.0,25.6,29.80,East,80,0.0,0.0,71,0.00,,---,0.00,VWS V13.00,2013-01-15 06:47:00,
2013-01-14 21:52:00,34.2,25.1,29.83,North,9,0.0,0.0,69,0.00,,---,0.00,VWS V13.00,2013-01-15 06:52:00,
2013-01-14 21:57:00,34.2,25.1,29.83,ENE,60,0.0,0.0,69,0.00,,---,0.00,VWS V13.00,2013-01-15 06:57:00,
2013-01-14 22:02:00,34.7,23.4,29.83,North,353,0.0,0.0,63,0.00,,---,0.00,VWS V13.00,2013-01-15 07:02:00,
2013-01-14 22:07:00,34.7,23.4,29.83,North,10,0.0,0.0,63,0.00,,---,0.00,VWS V13.00,2013-01-15 07:07:00,
2013-01-14 22:12:00,34.7,23.0,29.83,NE,47,0.0,0.0,62,0.00,,---,0.00,VWS V13.00,2013-01-15 07:12:00,
2013-01-14 22:17:00,34.5,23.2,29.83,ENE,60,0.0,0.0,63,0.00,,---,0.00,VWS V13.00,2013-01-15 07:17:00,
2013-01-14 22:22:00,34.3,23.1,29.83,North,9,0.0,0.0,63,0.00,,---,0.00,VWS V13.00,2013-01-15 07:22:00,
2013-01-14 22:27:00,34.3,23.1,29.83,NNE,31,0.0,0.0,63,0.00,,---,0.00,VWS V13.00,2013-01-15 07:27:00,
2013-01-14 22:32:00,34.3,23.1,29.83,NNE,15,0.0,0.0,63,0.00,,---,0.00,VWS V13.00,2013-01-15 07:32:00,
2013-01-14 22:37:00,34.0,23.5,29.83,NNE,30,0.0,0.0,65,0.00,,---,0.00,VWS V13.00,2013-01-15 07:37:00,
2013-01-14 22:42:00,34.0,23.5,29.83,NNE,12,0.0,0.0,65,0.00,,---,0.00,VWS V13.00,2013-01-15 07:42:00,
2013-01-14 22:47:00,33.8,23.7,29.83,NNW,341,0.0,0.0,66,0.00,,---,0.00,VWS V13.00,2013-01-15 07:47:00,
2013-01-14 22:52:00,33.6,23.5,29.83,North,9,0.0,0.0,66,0.00,,---,0.00,VWS V13.00,2013-01-15 07:52:00,
2013-01-14 22:57:00,33.6,23.5,29.83,North,9,0.0,0.0,66,0.00,,---,0.00,VWS V13.00,2013-01-15 07:57:00,
2013-01-14 23:02:00,33.6,24.2,29.83,NNW,344,0.0,0.0,68,0.00,,---,0.00,VWS V13.00,2013-01-15 08:02:00,
2013-01-14 23:07:00,33.6,24.2,29.83,NNW,344,0.0,0.0,68,0.00,,---,0.00,VWS V13.00,2013-01-15 08:07:00,
2013-01-14 23:12:00,33.4,24.0,29.83,North,0,0.0,0.0,68,0.00,,---,0.00,VWS V13.00,2013-01-15 08:12:00,
2013-01-14 23:17:00,33.3,23.9,29.83,North,11,0.0,0.0,68,0.00,,---,0.00,VWS V13.00,2013-01-15 08:17:00,
2013-01-14 23:22:00,33.3,23.9,29.83,North,4,0.0,0.0,68,0.00,,---,0.00,VWS V13.00,2013-01-15 08:22:00,
2013-01-14 23:27:00,33.1,24.0,29.83,North,350,0.0,0.0,69,0.00,,---,0.00,VWS V13.00,2013-01-15 08:27:00,
2013-01-14 23:32:00,33.1,24.0,29.83,North,350,0.0,0.0,69,0.00,,---,0.00,VWS V13.00,2013-01-15 08:32:00,
2013-01-14 23:37:00,33.1,24.0,29.83,North,6,0.0,0.0,69,0.00,,---,0.00,VWS V13.00,2013-01-15 08:37:00,
2013-01-14 23:42:00,33.1,24.0,29.83,NE,38,0.0,0.0,69,0.00,,---,0.00,VWS V13.00,2013-01-15 08:42:00,
2013-01-14 23:47:00,32.7,23.3,29.83,ENE,60,0.0,0.0,68,0.00,,---,0.00,VWS V13.00,2013-01-15 08:47:00,
2013-01-14 23:52:00,32.7,23.3,29.83,North,353,0.0,0.0,68,0.00,,---,0.00,VWS V13.00,2013-01-15 08:52:00,
2013-01-14 23:57:00,32.7,24.0,29.83,NNE,14,0.0,0.0,70,0.00,,---,0.00,VWS V13.00,2013-01-15 08:57:00,